Detalhes do Voo

Voltar

 DETALHES DO VÔO

Piloto: GLD879 Adalberto L. Aeronave: Beechcraft Distância: 160NM
Origem: SNBI Destino: SBRR Duração: 1.06
Validação: Validado Tipo: Charter Matrícula: PT-GLD
ZFW: 2566 Block Fuel/Init FOB 180/210 Combustível em Voo 180
Passageiros: 2 Carga: 50 Alternativo: SBPB
Hora da Decolagem: 1908 Velocidade de Cruzeiro: 160 Nível de Voo: 055
Regra Visual: VFR ICAO da Aeronave: BE35 Unidade de Peso: Kg
Data: 03/04/2026 Observação: GOLD ACARS Rede: VATSIM
Acidentou?: Não Comentários do Validador: Pontuação do Voo 85.995

 ROTA

ROTA DCT N0120A055 0402S04428W 0333S04354W 0312S04323W 0301S04254W DCT
REMARKS OPR/GOLD VIRTUAL AIRLINES PER/A RMK/FROM SNBI RMK/PIC GLD879 RMK/VATCAREER

 PENALIDADES DO VOO

Para entender como cada item é pontuado, consulte as regras de avaliação.

Nenhuma penalidade registrada para este voo.

 ANÁLISE DO POUSO

Vento durante o pouso: 50º/3 kt Proa durante o pouso: 90
V/S do Pouso: -184 ft/min IAS do Pouso: 70 kt
Força G no pouso: 1.1328 G Bank no pouso: -1.03
Pitch no Pouso 3.3 Flaps no Pouso 100
Nav Lights ON Landing Lights ON
Beacon Lights ON Strobe Lights ON

 MAPA DO VOO

 PERFIL VERTICAL DO VOO

 EVENTOS PRINCIPAIS DO VOO

DATAEVENTOIASALTITUDE
2026-04-03 19:08:56 GOLD ACARS VERSION 3.3.6.900
2026-04-03 19:08:56 STB LIGHTS ON00
2026-04-03 19:08:56 BOARDING013
2026-04-03 19:08:56 STARTING ENGINE 1013
2026-04-03 19:08:56 LITTLENAVMAP ON013
2026-04-03 19:11:24 TAXI TO THE RWY313
2026-04-03 19:11:32 FLAP 50%1211
2026-04-03 19:13:22 GEAR UP10215
2026-04-03 19:13:25 CLIMBING10720
2026-04-03 19:13:33 FLAP 0%10677
2026-04-03 19:13:39 AP ENGAGED111121
2026-04-03 19:19:00 CRUISE1551672
2026-04-03 20:01:49 DESCEND1311670
2026-04-03 20:07:32 GEAR DOWN122366
2026-04-03 20:07:34 FLAP 50%122366
2026-04-03 20:08:45 AP DISENGAGED103364
2026-04-03 20:09:13 CLIMBING102375
2026-04-03 20:09:17 CRUISE98384
2026-04-03 20:09:18 LANDING97383
2026-04-03 20:09:19 FLAP 100%97382
2026-04-03 20:10:35 LANDED AIRPORT [SBRR]70-2
2026-04-03 20:10:35 LANDED - VS: -184 ft/min69-3
2026-04-03 20:10:35 LANDING WITH INCORRECT QNH - SET:1010 LOCAL: 101269-3
2026-04-03 20:10:40 FLAP 50%46-4
2026-04-03 20:10:40 FLAP 0%43-4
2026-04-03 20:10:43 AT THE GATE28-5
2026-04-03 20:12:27 STOPPING ENGINE 10-6
2026-04-03 20:12:31 TAXI LIGHTS OFF0-6
2026-04-03 20:12:35 NAV LIGHTS OFF0-6
2026-04-03 20:12:36 BCN LIGHTS OFF0-6
2026-04-03 20:12:38 LANDED NOT IN THE PLANNED AIRPORT [SSRS] - [lat: -2,75945180503975] - [long: -42,8059680083822]0-6
2026-04-03 20:12:38 FLIGHT FINISHED0-6
2026-04-03 19:08:56 GOLD ACARS VERSION 3.3.6.900
2026-04-03 19:08:56 STB LIGHTS ON00
2026-04-03 19:08:56 BOARDING013
2026-04-03 19:08:56 STARTING ENGINE 1013
2026-04-03 19:08:56 LITTLENAVMAP ON013
2026-04-03 19:11:24 TAXI TO THE RWY313
2026-04-03 19:11:32 FLAP 50%1211
2026-04-03 19:13:22 GEAR UP10215
2026-04-03 19:13:25 CLIMBING10720
2026-04-03 19:13:33 FLAP 0%10677
2026-04-03 19:13:39 AP ENGAGED111121
2026-04-03 19:19:00 CRUISE1551672
2026-04-03 20:01:49 DESCEND1311670
2026-04-03 20:07:32 GEAR DOWN122366
2026-04-03 20:07:34 FLAP 50%122366
2026-04-03 20:08:45 AP DISENGAGED103364
2026-04-03 20:09:13 CLIMBING102375
2026-04-03 20:09:17 CRUISE98384
2026-04-03 20:09:18 LANDING97383
2026-04-03 20:09:19 FLAP 100%97382
2026-04-03 20:10:35 LANDED AIRPORT [SBRR]70-2
2026-04-03 20:10:35 LANDED - VS: -184 ft/min69-3
2026-04-03 20:10:35 LANDING WITH INCORRECT QNH - SET:1010 LOCAL: 101269-3
2026-04-03 20:10:40 FLAP 50%46-4
2026-04-03 20:10:40 FLAP 0%43-4
2026-04-03 20:10:43 AT THE GATE28-5
2026-04-03 20:12:27 STOPPING ENGINE 10-6
2026-04-03 20:12:31 TAXI LIGHTS OFF0-6
2026-04-03 20:12:35 NAV LIGHTS OFF0-6
2026-04-03 20:12:36 BCN LIGHTS OFF0-6
2026-04-03 20:12:38 LANDED NOT IN THE PLANNED AIRPORT [SSRS] - [lat: -2,75945180503975] - [long: -42,8059680083822]0-6
2026-04-03 20:12:38 FLIGHT FINISHED0-6

 DADOS DO ACARS

DATA IAS GS ALTITUDE COMBUSTÍVEL USADO OAT FASE DO VOO
2026-04-03 19:10:09 0 0 13 0 27 BOARDING
2026-04-03 19:11:09 0 0 13 0 27 BOARDING
2026-04-03 19:12:09 27 28 12 0 27 BOARDING
2026-04-03 19:13:10 44 46 12 0 27 TAXI TO THE RWY
2026-04-03 19:14:10 139 141 250 1 25 TAXI TO THE RWY
2026-04-03 19:15:10 147 150 555 2 23 CLIMBING
2026-04-03 19:16:10 150 155 852 3 21 CLIMBING
2026-04-03 19:17:10 150 157 1145 3 19 CLIMBING
2026-04-03 19:18:11 150 159 1444 4 17 CLIMBING
2026-04-03 19:19:11 163 174 1677 5 16 CLIMBING
2026-04-03 19:20:11 164 176 1678 6 16 CRUISE
2026-04-03 19:21:11 165 177 1679 7 16 CRUISE
2026-04-03 19:22:11 164 177 1679 7 16 CRUISE
2026-04-03 19:23:11 164 177 1678 8 16 CRUISE
2026-04-03 19:24:12 164 178 1679 9 16 CRUISE
2026-04-03 19:25:12 165 178 1679 10 16 CRUISE
2026-04-03 19:26:12 164 178 1679 10 16 CRUISE
2026-04-03 19:27:12 164 178 1678 11 16 CRUISE
2026-04-03 19:28:13 166 179 1679 12 16 CRUISE
2026-04-03 19:29:13 164 178 1678 13 16 CRUISE
2026-04-03 19:30:13 164 178 1678 13 16 CRUISE
2026-04-03 19:31:14 165 178 1679 14 16 CRUISE
2026-04-03 19:32:14 164 178 1678 15 16 CRUISE
2026-04-03 19:33:14 164 178 1677 16 16 CRUISE
2026-04-03 19:34:14 164 177 1677 16 16 CRUISE
2026-04-03 19:35:15 164 178 1678 17 16 CRUISE
2026-04-03 19:36:15 166 180 1679 18 16 CRUISE
2026-04-03 19:37:15 166 179 1679 19 16 CRUISE
2026-04-03 19:38:15 165 178 1678 19 16 CRUISE
2026-04-03 19:39:15 165 178 1678 20 15 CRUISE
2026-04-03 19:40:16 164 178 1678 21 15 CRUISE
2026-04-03 19:41:16 164 178 1678 22 15 CRUISE
2026-04-03 19:42:16 164 178 1678 22 15 CRUISE
2026-04-03 19:43:16 164 178 1678 23 15 CRUISE
2026-04-03 19:44:16 164 179 1678 24 15 CRUISE
2026-04-03 19:45:17 164 179 1677 25 15 CRUISE
2026-04-03 19:46:17 164 179 1676 25 15 CRUISE
2026-04-03 19:47:17 164 179 1677 26 16 CRUISE
2026-04-03 19:48:17 164 178 1676 27 16 CRUISE
2026-04-03 19:49:17 164 179 1676 28 16 CRUISE
2026-04-03 19:50:17 164 179 1676 28 16 CRUISE
2026-04-03 19:51:18 164 179 1676 29 16 CRUISE
2026-04-03 19:52:18 165 179 1676 30 16 CRUISE
2026-04-03 19:53:18 164 178 1674 30 16 CRUISE
2026-04-03 19:54:18 164 178 1676 31 16 CRUISE
2026-04-03 19:55:18 164 178 1675 32 16 CRUISE
2026-04-03 19:56:19 164 177 1676 33 16 CRUISE
2026-04-03 19:57:19 164 177 1676 33 16 CRUISE
2026-04-03 19:58:19 164 177 1676 34 16 CRUISE
2026-04-03 19:59:19 165 178 1676 35 16 CRUISE
2026-04-03 20:00:19 165 177 1675 36 16 CRUISE
2026-04-03 20:01:20 164 179 1674 36 16 CRUISE
2026-04-03 20:02:20 134 143 1421 37 17 CRUISE
2026-04-03 20:03:20 141 149 1039 37 19 DESCEND
2026-04-03 20:04:20 138 143 746 37 21 DESCEND
2026-04-03 20:05:20 148 149 452 37 22 DESCEND
2026-04-03 20:06:21 116 116 365 37 23 DESCEND
2026-04-03 20:07:21 122 122 366 38 23 DESCEND
2026-04-03 20:08:21 95 101 363 38 23 DESCEND
2026-04-03 20:09:21 97 101 373 38 23 DESCEND
2026-04-03 20:10:21 85 84 28 39 25 LANDING
2026-04-03 20:11:21 12 14 -6 39 25 LANDING
2026-04-03 20:12:22 1 0 -6 -30 25 AT THE GATE
2026-04-03 20:23:22 1 0 -6 0 25 AT THE GATE